Location: Lawrence
(38.9720°N, 95.2350°W)
Time: 16:26:37
(UTC-05:00)

Amateur Radio Satellites - All Passes

Search period start: 21 August 2017 15:56
Search period end: 22 August 2017 15:56
Location: Lawrence, 38.9720°N, 95.2350°W

Satellite Date Start Highest point End Downlink Frequencies (MHz)
Time Altitude Azimuth
BEESAT 2 21 Aug 15:57:42 16:01:33 44° 244° (WSW) 16:05:22 435.950
UKube-1 21 Aug 16:00:54 16:04:24 24° 292° (WNW) 16:07:52 .
YUBILEINY 21 Aug 16:09:00 16:17:24 52° 90° (E) 16:25:46 435.215
MOZHAYETS 4 21 Aug 16:22:16 16:26:45 48° 99° (E) 16:31:14
ISS 21 Aug 16:34:37 16:37:38 33° 31° (NNE) 16:40:38 437.550
AO-7 21 Aug 16:41:38 16:49:41 51° 258° (WSW) 16:57:47 .
nSIGHT-1 21 Aug 16:42:03 16:45:08 40° 33° (NNE) 16:48:13 .
BEESAT 21 Aug 16:44:23 16:49:11 86° 282° (WNW) 16:53:57 436.000
CUBESAT XI-V 21 Aug 16:45:05 16:48:09 17° 92° (E) 16:51:11 437.345
Tancredo 1 21 Aug 16:50:08 16:52:50 35° 224° (SW) 16:55:30 437.200
RS-15 21 Aug 16:51:50 16:59:55 19° 2° (N) 17:07:52 29.354- 29.394
ITAMSAT 1 21 Aug 16:56:37 17:01:11 31° 263° (W) 17:05:46 435.822/435.867
ITUPSAT 1 21 Aug 17:19:32 17:23:58 38° 290° (WNW) 17:28:21 437.325
CUTE-I 21 Aug 17:32:55 17:36:13 17° 62° (ENE) 17:39:30 437.470
DOVE 4 21 Aug 17:49:06 17:54:22 70° 75° (ENE) 17:59:31 437.250
MOZHAYETS 4 21 Aug 18:00:37 18:03:30 17° 295° (WNW) 18:06:22
LilacSat-2 21 Aug 18:01:30 18:04:41 27° 71° (ENE) 18:07:54 437.200
XW-2D 21 Aug 18:04:39 18:07:52 28° 71° (ENE) 18:11:08 145.860 - 145.880
KKS-1 21 Aug 18:04:49 18:09:08 50° 100° (E) 18:13:24 437.445
YUBILEINY 21 Aug 18:06:46 18:14:27 33° 289° (WNW) 18:22:10 435.215
NUDT-PHONESAT 21 Aug 18:08:13 18:11:02 21° 70° (ENE) 18:13:52 437.300
ISS 21 Aug 18:11:17 18:14:01 25° 227° (SW) 18:16:44 437.550
XW-2B 21 Aug 18:15:27 18:18:54 36° 73° (ENE) 18:22:24 145.730 - 145.750
nSIGHT-1 21 Aug 18:18:54 18:21:19 19° 229° (SW) 18:23:43 .
CUBESAT XI-V 21 Aug 18:21:12 18:25:43 45° 288° (WNW) 18:30:11 437.345
XW-2C 21 Aug 18:34:16 18:37:59 67° 76° (ENE) 18:41:45 145.795 - 145.815
STARS 21 Aug 18:41:05 18:45:21 50° 100° (E) 18:49:35 437.465
XW-2F 21 Aug 18:45:44 18:49:27 89° 80° (E) 18:53:14 145.980 - 146.000
RS-15 21 Aug 19:07:03 19:17:49 34° 37° (NE) 19:28:03 29.354- 29.394
KAITUO 1B 21 Aug 19:09:35 19:13:12 55° 260° (W) 19:16:53 145.475/437.950
CUTE-I 21 Aug 19:10:23 19:15:42 64° 259° (WSW) 19:21:02 437.470
O/OREOS (USA 219) 21 Aug 19:17:47 19:21:41 27° 61° (ENE) 19:25:34 437.305
HO-68 21 Aug 19:18:00 19:24:56 57° 69° (ENE) 19:31:54 435.675
AAUSAT CUBESAT 2 21 Aug 19:22:35 19:23:51 11° 64° (ENE) 19:25:08 437.432
CUTE 1.7 + AOD 2 21 Aug 19:25:55 19:29:56 45° 73° (ENE) 19:34:00 437.475
DOVE 4 21 Aug 19:29:53 19:32:25 13° 270° (W) 19:34:57 437.250
LilacSat-2 21 Aug 19:36:17 19:38:57 18° 266° (W) 19:41:38 437.200
UWE-3 21 Aug 19:38:11 19:41:02 18° 68° (ENE) 19:43:52 435.000/436.395/437.385
XW-2D 21 Aug 19:39:32 19:42:04 17° 266° (W) 19:44:37 145.860 - 145.880
NUDT-PHONESAT 21 Aug 19:41:56 19:44:48 22° 265° (W) 19:47:42 437.300
KKS-1 21 Aug 19:42:46 19:45:14 15° 296° (WNW) 19:47:42 437.445
CUBEBUG 2 21 Aug 19:46:03 19:50:02 39° 73° (ENE) 19:53:56 437.445
XW-2B 21 Aug 19:51:23 19:53:14 13° 268° (W) 19:55:05 145.730 - 145.750
SEEDS 21 Aug 20:11:49 20:16:01 85° 257° (WSW) 20:20:16 437.485
ZACube-1 21 Aug 20:15:17 20:18:40 25° 70° (ENE) 20:22:03 437.345
STARS 21 Aug 20:18:54 20:21:14 14° 296° (WNW) 20:23:34 437.465
XW-2A 21 Aug 20:29:02 20:32:16 51° 260° (W) 20:35:32 145.665 - 145.685
AO-73 21 Aug 20:35:25 20:39:14 37° 72° (ENE) 20:43:03 145.935
STRAND 1 21 Aug 20:52:12 20:57:19 82° 103° (ESE) 21:02:26 437.568
AAUSAT CUBESAT 2 21 Aug 20:54:39 20:58:45 60° 260° (W) 21:02:54 437.432
O/OREOS (USA 219) 21 Aug 20:57:09 21:01:00 27° 257° (WSW) 21:04:50 437.305
CUTE 1.7 + AOD 2 21 Aug 21:03:45 21:05:59 14° 269° (W) 21:08:13 437.475
HO-68 21 Aug 21:07:15 21:12:59 26° 266° (W) 21:18:45 435.675
UWE-3 21 Aug 21:13:25 21:17:15 34° 263° (W) 21:21:03 435.000/436.395/437.385
Oscar 11 21 Aug 21:18:49 21:23:07 90° 327° (NNW) 21:27:27 .
RS-15 21 Aug 21:19:41 21:31:43 82° 242° (WSW) 21:43:04 29.354- 29.394
CUBEBUG 2 21 Aug 21:24:09 21:26:46 16° 267° (W) 21:29:23 437.445
Max Valier Satellite 21 Aug 21:28:06 21:30:28 17° 68° (ENE) 21:32:51 145.860
PCSat 21 Aug 21:46:38 21:49:12 14° 103° (ESE) 21:51:45 145.827
ZACube-1 21 Aug 21:51:31 21:54:52 24° 265° (W) 21:58:14 437.345
DELFI C3 21 Aug 21:51:44 21:55:34 47° 73° (ENE) 21:59:26 145.870
AO-73 21 Aug 22:13:06 22:15:37 16° 267° (W) 22:18:07 145.935
EO-88 21 Aug 22:18:38 22:22:11 57° 76° (ENE) 22:25:46 145.990 - 145.960
STRAND 1 21 Aug 22:33:52 22:35:46 12° 300° (WNW) 22:37:41 437.568
FO-29 21 Aug 22:33:59 22:39:25 58° 100° (E) 22:44:30 435.910
PRISM 21 Aug 22:36:37 22:39:13 16° 94° (E) 22:41:48 437.425
UNISAT 6 21 Aug 22:48:19 22:52:19 36° 98° (E) 22:56:22 437.425
SO-50 21 Aug 22:58:22 23:02:26 34° 114° (ESE) 23:06:30 436.795
Max Valier Satellite 21 Aug 23:00:56 23:04:05 27° 264° (W) 23:07:15 145.860
TIGRISAT 21 Aug 23:22:52 23:27:12 83° 105° (ESE) 23:31:35 435.000
PCSat 21 Aug 23:26:28 23:31:53 75° 299° (WNW) 23:37:20 145.827
DELFI C3 21 Aug 23:29:03 23:30:33 12° 269° (W) 23:32:06 145.870
RS-15 21 Aug 23:35:08 23:42:04 18° 263° (W) 23:48:51 29.354- 29.394
LO-87 21 Aug 23:45:07 23:48:43 90° 77° (ENE) 23:52:19 145.935 - 145.965
ESTCUBE 1 22 Aug 00:04:35 00:09:06 89° 57° (ENE) 00:13:39 437.505/2401.250
AIST 2D 22 Aug 00:07:05 00:10:14 29° 97° (E) 00:13:22 435.315
SPROUT 22 Aug 00:07:41 00:11:00 22° 68° (ENE) 00:14:19 437.525
VELOX 1 22 Aug 00:08:09 00:11:21 20° 66° (ENE) 00:14:34 145.980
PRISM 22 Aug 00:10:49 00:14:36 36° 289° (WNW) 00:18:22 437.425
FO-29 22 Aug 00:20:31 00:23:55 17° 300° (WNW) 00:27:11 435.910
UNISAT 6 22 Aug 00:25:43 00:28:46 19° 293° (WNW) 00:31:51 437.425
SO-50 22 Aug 00:39:08 00:42:55 26° 311° (NW) 00:46:43 436.795
NANOSAT C BR1 22 Aug 00:42:15 00:45:53 28° 97° (E) 00:49:28 145.865
POLYITAN 1 22 Aug 00:47:46 00:51:39 36° 98° (E) 00:55:34 437.675
M-CUBED/EXP-1 PRIME 22 Aug 00:59:04 01:03:24 69° 107° (ESE) 01:07:21 437.505
QB50P2 22 Aug 01:02:46 01:06:57 62° 101° (E) 01:11:08 145.880/145.840
EO-79 22 Aug 01:03:06 01:07:14 56° 101° (E) 01:11:22 145.935-145.965
PCSat 22 Aug 01:13:51 01:16:13 13° 319° (NW) 01:18:37 145.827
NO-84 22 Aug 01:16:16 01:19:07 47° 133° (SE) 01:21:54 435.350 FM
UKube-1 22 Aug 01:18:23 01:21:36 21° 67° (ENE) 01:24:50 .
BUGSAT 1 22 Aug 01:28:11 01:31:15 21° 95° (E) 01:34:18 437.445
DUCHIFAT 1 22 Aug 01:31:44 01:35:55 85° 286° (WNW) 01:40:06 145.980
AIST 2D 22 Aug 01:41:03 01:43:10 15° 292° (WNW) 01:45:16 435.315
DX 1 22 Aug 01:41:06 01:45:22 57° 74° (ENE) 01:49:42 434.975-435.025
SPROUT 22 Aug 01:43:02 01:46:43 28° 263° (W) 01:50:26 437.525
VELOX 1 22 Aug 01:43:24 01:47:31 37° 262° (W) 01:51:40 145.980
Gurwin Techsat 1B 22 Aug 01:53:42 01:55:53 12° 90° (E) 01:58:03 435.225
50 SAT 22 Aug 01:55:15 01:58:37 60° 259° (W) 02:02:01 437.505
Oscar 19 22 Aug 02:08:52 02:13:20 28° 96° (E) 02:17:45 437.125/150
BEESAT 22 Aug 02:16:20 02:17:00 10° 60° (ENE) 02:17:41 436.000
NANOSAT C BR1 22 Aug 02:18:09 02:21:26 22° 291° (WNW) 02:24:42 145.865
YUBILEINY 22 Aug 02:21:21 02:27:59 24° 67° (ENE) 02:34:35 435.215
POLYITAN 1 22 Aug 02:24:19 02:27:10 18° 293° (WNW) 02:30:00 437.675
M-CUBED/EXP-1 PRIME 22 Aug 02:35:40 02:37:06 11° 304° (NW) 02:38:29 437.505
EO-79 22 Aug 02:40:48 02:42:29 12° 296° (WNW) 02:44:12 145.935-145.965
QB50P2 22 Aug 02:40:54 02:42:12 11° 297° (WNW) 02:43:29 145.880/145.840
ITUPSAT 1 22 Aug 02:48:11 02:51:48 22° 66° (ENE) 02:55:26 437.325
UKube-1 22 Aug 02:53:30 02:57:24 33° 262° (W) 03:01:19 .
NO-84 22 Aug 02:55:02 02:56:40 14° 329° (NNW) 02:58:19 435.350 FM
BUGSAT 1 22 Aug 03:03:10 03:06:34 27° 290° (WNW) 03:09:59 437.445
DX 1 22 Aug 03:20:17 03:21:53 12° 269° (W) 03:23:30 434.975-435.025
MOZHAYETS 4 22 Aug 03:22:51 03:27:04 39° 72° (ENE) 03:31:19
Gurwin Techsat 1B 22 Aug 03:31:01 03:36:21 74° 285° (WNW) 03:41:37 435.225
ITAMSAT 1 22 Aug 03:33:48 03:34:57 11° 90° (E) 03:36:07 435.822/435.867
CUBESAT XI-V 22 Aug 03:47:45 03:50:26 15° 64° (ENE) 03:53:08 437.345
Oscar 19 22 Aug 03:47:59 03:52:37 33° 292° (WNW) 03:57:13 437.125/150
BEESAT 22 Aug 03:49:17 03:54:02 85° 255° (WSW) 03:58:49 436.000
YUBILEINY 22 Aug 04:16:56 04:25:34 72° 267° (W) 04:34:11 435.215
ITUPSAT 1 22 Aug 04:24:59 04:29:22 37° 262° (W) 04:33:47 437.325
AO-7 22 Aug 04:44:11 04:52:25 61° 104° (ESE) 05:00:34 .
MOZHAYETS 4 22 Aug 05:01:15 05:04:21 18° 267° (W) 05:07:30
KKS-1 22 Aug 05:01:26 05:05:37 40° 71° (ENE) 05:09:47 437.445
ITAMSAT 1 22 Aug 05:09:47 05:14:59 81° 285° (WNW) 05:20:09 435.822/435.867
CUBESAT XI-V 22 Aug 05:22:47 05:27:19 54° 260° (W) 05:31:56 437.345
BEESAT 3 22 Aug 05:30:10 05:34:09 86° 120° (ESE) 05:38:13 437.485
STARS 22 Aug 05:36:17 05:40:22 39° 71° (ENE) 05:44:27 437.465
BEESAT 2 22 Aug 05:47:19 05:51:02 39° 115° (ESE) 05:54:48 435.950
DOVE 4 22 Aug 05:50:51 05:53:56 18° 92° (E) 05:56:55 437.250
AO-85 22 Aug 06:08:03 06:11:58 62° 303° (WNW) 06:15:51 145.980
YUBILEINY 22 Aug 06:18:17 06:20:39 11° 286° (WNW) 06:23:00 435.215
STRAND 1 22 Aug 06:31:23 06:33:24 12° 60° (ENE) 06:35:26 437.568
PCSat 22 Aug 06:34:37 06:36:30 12° 40° (NE) 06:38:22 145.827
AO-7 22 Aug 06:37:43 06:44:39 31° 302° (WNW) 06:51:34 .
KKS-1 22 Aug 06:39:18 06:42:18 18° 266° (W) 06:45:18 437.445
KAITUO 1B 22 Aug 06:42:51 06:45:07 15° 93° (E) 06:47:21 145.475/437.950
LilacSat-2 22 Aug 07:09:11 07:12:57 47° 99° (E) 07:16:42 437.200
BEESAT 3 22 Aug 07:11:04 07:12:18 11° 318° (NW) 07:13:32 437.485
XW-2D 22 Aug 07:11:36 07:15:21 49° 99° (E) 07:19:04 145.860 - 145.880
NUDT-PHONESAT 22 Aug 07:12:26 07:15:52 34° 98° (E) 07:19:18 437.300
STARS 22 Aug 07:13:51 07:16:49 18° 266° (W) 07:19:47 437.465
XW-2B 22 Aug 07:22:38 07:26:28 66° 102° (ESE) 07:30:17 145.730 - 145.750
BEESAT 2 22 Aug 07:25:58 07:28:55 19° 313° (NW) 07:31:54 435.950
DOVE 4 22 Aug 07:27:40 07:31:47 35° 289° (WNW) 07:35:40 437.250
CUTE-I 22 Aug 07:28:35 07:33:50 57° 101° (E) 07:39:02 437.470
SO-50 22 Aug 07:30:32 07:34:18 25° 48° (NE) 07:38:04 436.795
XW-2C 22 Aug 07:41:49 07:45:39 67° 283° (WNW) 07:49:28 145.795 - 145.815
NO-84 22 Aug 07:50:27 07:52:44 19° 35° (NE) 07:55:06 435.350 FM
XW-2F 22 Aug 07:52:51 07:56:34 51° 286° (WNW) 08:00:17 145.980 - 146.000
SEEDS 22 Aug 07:57:43 08:00:34 17° 93° (E) 08:03:24 437.485
STRAND 1 22 Aug 08:06:46 08:11:53 80° 258° (WSW) 08:17:01 437.568
PCSat 22 Aug 08:15:31 08:20:57 67° 60° (ENE) 08:26:19 145.827
KAITUO 1B 22 Aug 08:15:45 08:19:11 33° 288° (WNW) 08:22:36 145.475/437.950
HO-68 22 Aug 08:34:15 08:41:23 67° 103° (ESE) 08:48:29 435.675
AAUSAT CUBESAT 2 22 Aug 08:38:23 08:41:40 22° 94° (E) 08:44:55 437.432
FO-29 22 Aug 08:43:56 08:50:02 28° 65° (ENE) 08:55:39 435.910
LilacSat-2 22 Aug 08:45:17 08:46:47 12° 294° (WNW) 08:48:16 437.200
CUTE 1.7 + AOD 2 22 Aug 08:47:14 08:51:32 75° 285° (WNW) 08:55:48 437.475
NUDT-PHONESAT 22 Aug 08:47:16 08:49:27 15° 293° (WNW) 08:51:38 437.300
XW-2D 22 Aug 08:47:48 08:49:04 11° 295° (WNW) 08:50:19 145.860 - 145.880
UWE-3 22 Aug 09:03:13 09:07:21 46° 99° (E) 09:11:34 435.000/436.395/437.385
Oscar 11 22 Aug 09:08:04 09:11:06 18° 93° (E) 09:14:06 .
CUTE-I 22 Aug 09:09:52 09:13:23 18° 297° (WNW) 09:16:53 437.470
SO-50 22 Aug 09:10:36 09:14:50 38° 245° (WSW) 09:19:06 436.795
CUBEBUG 2 22 Aug 09:13:39 09:17:52 74° 284° (WNW) 09:22:11 437.445
ISS 22 Aug 09:14:24 09:16:41 18° 131° (SE) 09:18:58 437.550
Tancredo 1 22 Aug 09:15:07 09:18:01 84° 137° (SE) 09:20:56 437.200
nSIGHT-1 22 Aug 09:20:28 09:23:02 22° 132° (SE) 09:25:36 .
XW-2A 22 Aug 09:24:17 09:27:31 41° 286° (WNW) 09:30:44 145.665 - 145.685
PRISM 22 Aug 09:26:19 09:27:24 11° 63° (ENE) 09:28:30 437.425
NO-84 22 Aug 09:27:16 09:30:10 36° 229° (SW) 09:33:17 435.350 FM
O/OREOS (USA 219) 22 Aug 09:28:41 09:32:47 37° 105° (ESE) 09:36:56 437.305
SEEDS 22 Aug 09:32:27 09:36:21 36° 288° (WNW) 09:40:14 437.485
RS-15 22 Aug 09:33:59 09:40:49 17° 96° (E) 09:47:41 29.354- 29.394
ZACube-1 22 Aug 09:39:26 09:43:44 66° 101° (E) 09:48:06 437.345
UNISAT 6 22 Aug 09:46:12 09:49:51 27° 70° (ENE) 09:53:27 437.425
AO-73 22 Aug 09:59:41 10:04:00 82° 285° (WNW) 10:08:24 145.935
PCSat 22 Aug 10:00:40 10:03:42 15° 256° (WSW) 10:06:44 145.827
AAUSAT CUBESAT 2 22 Aug 10:13:31 10:17:04 28° 290° (WNW) 10:20:37 437.432
TIGRISAT 22 Aug 10:20:08 10:24:23 60° 75° (ENE) 10:28:36 435.000
HO-68 22 Aug 10:23:05 10:28:29 24° 301° (WNW) 10:33:52 435.675
FO-29 22 Aug 10:27:13 10:34:41 57° 259° (W) 10:41:31 435.910
Max Valier Satellite 22 Aug 10:31:38 10:34:47 25° 96° (E) 10:37:54 145.860
UWE-3 22 Aug 10:41:01 10:43:25 15° 294° (WNW) 10:45:52 435.000/436.395/437.385
Oscar 11 22 Aug 10:43:19 10:47:20 36° 288° (WNW) 10:51:19 .
ISS 22 Aug 10:49:45 10:52:55 45° 326° (NW) 10:56:06 437.550
Tancredo 1 22 Aug 10:51:49 10:53:32 14° 338° (NNW) 10:55:15 437.200
nSIGHT-1 22 Aug 10:56:11 10:59:15 37° 328° (NNW) 11:02:20 .
PRISM 22 Aug 10:58:00 11:02:06 63° 259° (WSW) 11:06:16 437.425
DELFI C3 22 Aug 11:04:10 11:08:10 87° 283° (WNW) 11:12:07 145.870
O/OREOS (USA 219) 22 Aug 11:09:01 11:12:19 20° 302° (WNW) 11:15:38 437.305
ZACube-1 22 Aug 11:18:13 11:19:28 11° 296° (WNW) 11:20:44 437.345
EO-88 22 Aug 11:21:45 11:25:27 88° 284° (WNW) 11:29:07 145.990 - 145.960
UNISAT 6 22 Aug 11:23:00 11:26:30 24° 265° (W) 11:29:59 437.425
JUGNU 22 Aug 11:31:10 11:32:25 11° 175° (S) 11:33:39 437.505
NANOSAT C BR1 22 Aug 11:33:40 11:36:34 18° 67° (ENE) 11:39:27 145.865
RS-15 22 Aug 11:39:01 11:51:10 77° 116° (ESE) 12:03:30 29.354- 29.394
POLYITAN 1 22 Aug 11:39:23 11:42:44 24° 69° (ENE) 11:46:06 437.675
M-CUBED/EXP-1 PRIME 22 Aug 11:42:25 11:46:54 70° 69° (ENE) 11:51:33 437.505
QB50P2 22 Aug 11:54:00 11:57:53 38° 72° (ENE) 12:01:47 145.880/145.840
EO-79 22 Aug 11:54:12 11:58:00 34° 71° (ENE) 12:01:49 145.935-145.965
ESTCUBE 1 22 Aug 11:58:58 12:02:22 21° 94° (E) 12:05:45 437.505/2401.250
TIGRISAT 22 Aug 12:00:35 12:01:25 10° 269° (W) 12:02:15 435.000
Max Valier Satellite 22 Aug 12:05:47 12:08:25 19° 291° (WNW) 12:11:03 145.860
AIST 2D 22 Aug 12:12:36 12:15:57 47° 261° (W) 12:19:21 435.315
BUGSAT 1 22 Aug 12:17:49 12:19:49 13° 65° (ENE) 12:21:46 437.445
DUCHIFAT 1 22 Aug 12:21:52 12:25:57 57° 74° (ENE) 12:30:03 145.980
ISS 22 Aug 12:28:35 12:30:03 12° 345° (NNW) 12:31:32 437.550
nSIGHT-1 22 Aug 12:35:11 12:36:21 11° 347° (NNW) 12:37:31 .
LO-87 22 Aug 12:46:24 12:49:53 59° 285° (WNW) 12:53:21 145.935 - 145.965
NANOSAT C BR1 22 Aug 13:08:11 13:12:00 34° 262° (W) 13:15:50 145.865
Gurwin Techsat 1B 22 Aug 13:12:58 13:16:41 20° 64° (ENE) 13:20:25 435.225
POLYITAN 1 22 Aug 13:14:51 13:18:23 26° 264° (W) 13:21:56 437.675
JUGNU 22 Aug 13:19:28 13:20:28 10° 186° (S) 13:21:29 437.505
M-CUBED/EXP-1 PRIME 22 Aug 13:20:16 13:21:43 11° 266° (W) 13:23:11 437.505
Oscar 19 22 Aug 13:24:25 13:29:06 37° 69° (ENE) 13:33:49 437.125/150
SPROUT 22 Aug 13:29:03 13:33:10 48° 99° (E) 13:37:16 437.525
EO-79 22 Aug 13:30:58 13:33:50 18° 266° (W) 13:36:43 145.935-145.965
QB50P2 22 Aug 13:31:09 13:33:48 16° 267° (W) 13:36:27 145.880/145.840
DX 1 22 Aug 13:33:22 13:34:04 10° 91° (E) 13:34:46 434.975-435.025
VELOX 1 22 Aug 13:34:11 13:38:24 43° 99° (E) 13:42:34 145.980
ESTCUBE 1 22 Aug 13:35:06 13:39:14 35° 289° (WNW) 13:43:20 437.505/2401.250
BEESAT 3 22 Aug 13:48:13 13:51:50 32° 52° (NE) 13:55:23 437.485
BUGSAT 1 22 Aug 13:50:48 13:54:45 47° 260° (W) 13:58:40 437.445
AO-7 22 Aug 13:53:42 13:58:22 16° 49° (NE) 14:03:03 .
RS-15 22 Aug 13:53:47 14:04:53 37° 321° (NW) 14:16:03 29.354- 29.394
DUCHIFAT 1 22 Aug 14:01:06 14:01:57 10° 269° (W) 14:02:47 145.980
Tancredo 1 22 Aug 14:04:55 14:06:02 12° 18° (NNE) 14:07:10 437.200
BEESAT 2 22 Aug 14:06:24 14:09:19 19° 47° (NE) 14:12:11 435.950
AO-85 22 Aug 14:39:19 14:43:40 73° 59° (ENE) 14:48:21 145.980
UKube-1 22 Aug 14:41:08 14:45:14 41° 99° (E) 14:49:18 .
ITAMSAT 1 22 Aug 14:49:29 14:52:45 17° 62° (ENE) 14:56:00 435.822/435.867
50 SAT 22 Aug 14:50:20 14:53:36 50° 285° (WNW) 14:56:51 437.505
Gurwin Techsat 1B 22 Aug 14:51:02 14:56:13 52° 260° (W) 15:01:24 435.225
Oscar 19 22 Aug 15:04:16 15:08:28 25° 265° (W) 15:12:41 437.125/150
DX 1 22 Aug 15:06:19 15:10:38 63° 286° (WNW) 15:14:54 434.975-435.025
SPROUT 22 Aug 15:06:26 15:08:38 14° 295° (WNW) 15:10:50 437.525
VELOX 1 22 Aug 15:11:39 15:14:28 17° 295° (WNW) 15:17:17 145.980
YUBILEINY 22 Aug 15:21:19 15:28:22 28° 83° (E) 15:35:21 435.215
SRMSAT 22 Aug 15:21:42 15:23:20 11° 181° (S) 15:24:57 437.500
BEESAT 3 22 Aug 15:26:14 15:29:10 20° 249° (WSW) 15:32:03 437.485
Tancredo 1 22 Aug 15:38:51 15:41:43 58° 37° (NE) 15:44:34 437.200
ISS 22 Aug 15:42:37 15:45:13 21° 26° (NNE) 15:47:48 437.550
BEESAT 2 22 Aug 15:43:24 15:47:14 41° 244° (WSW) 15:51:00 435.950
nSIGHT-1 22 Aug 15:48:32 15:51:15 24° 27° (NNE) 15:53:58 .
